Time,TemperatureF,DewpointF,PressureIn,WindDirection,WindDirectionDegrees,WindSpeedMPH,WindSpeedGustMPH,Humidity,HourlyPrecipIn,Conditions,Clouds,dailyrainin,SoftwareType,DateUTC
2013-06-18 00:02:00,84.0,79.0,30.01,SE,146,6.0,-999.0,84,-99.99,,,-99.99,,2013-06-18 04:02:00,
2013-06-18 00:12:00,84.0,79.0,30.01,SE,127,4.0,-999.0,84,-99.99,,,-99.99,,2013-06-18 04:12:00,
2013-06-18 00:23:00,84.0,79.0,30.01,SE,127,4.0,-999.0,84,-99.99,,,-99.99,,2013-06-18 04:23:00,
2013-06-18 00:34:00,84.0,79.0,30.01,SE,128,4.0,-999.0,84,-99.99,,,-99.99,,2013-06-18 04:34:00,
2013-06-18 00:43:00,83.0,78.0,30.01,SE,136,4.0,-999.0,84,-99.99,,,-99.99,,2013-06-18 04:43:00,
2013-06-18 00:53:00,83.0,78.0,30.01,ESE,116,4.0,-999.0,84,-99.99,,,-99.99,,2013-06-18 04:53:00,
2013-06-18 01:02:00,83.0,78.0,30.01,SE,131,2.0,-999.0,85,-99.99,,,-99.99,,2013-06-18 05:02:00,
2013-06-18 01:12:00,83.0,78.0,30.01,SE,131,2.0,-999.0,85,-99.99,,,-99.99,,2013-06-18 05:12:00,
2013-06-18 01:22:00,83.0,78.0,30.00,SE,136,4.0,-999.0,84,-99.99,,,-99.99,,2013-06-18 05:22:00,
2013-06-18 01:34:00,83.0,78.0,30.00,ESE,114,4.0,-999.0,85,-99.99,,,-99.99,,2013-06-18 05:34:00,
2013-06-18 01:43:00,83.0,78.0,30.00,SSE,154,3.0,-999.0,85,-99.99,,,-99.99,,2013-06-18 05:43:00,
2013-06-18 01:53:00,83.0,78.0,30.00,SE,128,3.0,-999.0,85,-99.99,,,-99.99,,2013-06-18 05:53:00,
2013-06-18 02:02:00,83.0,78.0,29.99,SE,144,2.0,-999.0,85,-99.99,,,-99.99,,2013-06-18 06:02:00,
2013-06-18 02:11:00,83.0,78.0,29.99,ESE,117,5.0,-999.0,85,-99.99,,,-99.99,,2013-06-18 06:11:00,
2013-06-18 02:23:00,83.0,78.0,29.99,SE,134,4.0,-999.0,86,-99.99,,,-99.99,,2013-06-18 06:23:00,
2013-06-18 02:32:00,83.0,78.0,29.98,SE,142,5.0,-999.0,85,-99.99,,,-99.99,,2013-06-18 06:32:00,
2013-06-18 02:43:00,83.0,78.0,29.98,ESE,119,3.0,-999.0,85,-99.99,,,-99.99,,2013-06-18 06:43:00,
2013-06-18 02:52:00,83.0,78.0,29.98,SE,136,2.0,-999.0,84,-99.99,,,-99.99,,2013-06-18 06:52:00,
2013-06-18 03:02:00,83.0,78.0,29.98,SE,133,1.0,-999.0,85,-99.99,,,-99.99,,2013-06-18 07:02:00,
2013-06-18 03:12:00,83.0,78.0,29.98,ESE,122,1.0,-999.0,84,-99.99,,,-99.99,,2013-06-18 07:12:00,
2013-06-18 03:22:00,83.0,78.0,29.98,ESE,118,1.0,-999.0,85,-99.99,,,-99.99,,2013-06-18 07:22:00,
2013-06-18 03:33:00,83.0,78.0,29.98,SE,141,2.0,-999.0,85,-99.99,,,-99.99,,2013-06-18 07:33:00,
2013-06-18 03:43:00,83.0,78.0,29.98,SSE,151,2.0,-999.0,86,-99.99,,,-99.99,,2013-06-18 07:43:00,
2013-06-18 03:53:00,83.0,78.0,29.98,SE,144,3.0,-999.0,86,-99.99,,,-99.99,,2013-06-18 07:53:00,
2013-06-18 04:02:00,83.0,78.0,29.98,SSE,159,1.0,-999.0,86,-99.99,,,-99.99,,2013-06-18 08:02:00,
2013-06-18 04:11:00,82.0,77.0,29.98,East,80,1.0,-999.0,85,-99.99,,,-99.99,,2013-06-18 08:11:00,
2013-06-18 04:23:00,82.0,77.0,29.97,SE,135,2.0,-999.0,85,-99.99,,,-99.99,,2013-06-18 08:23:00,
2013-06-18 04:33:00,83.0,78.0,29.97,SSE,149,2.0,-999.0,85,-99.99,,,-99.99,,2013-06-18 08:33:00,
2013-06-18 04:43:00,83.0,78.0,29.97,SE,137,3.0,-999.0,86,-99.99,,,-99.99,,2013-06-18 08:43:00,
2013-06-18 04:52:00,83.0,78.0,29.97,ESE,117,1.0,-999.0,86,-99.99,,,-99.99,,2013-06-18 08:52:00,
2013-06-18 05:02:00,82.0,77.0,29.97,ESE,115,2.0,-999.0,86,-99.99,,,-99.99,,2013-06-18 09:02:00,
2013-06-18 05:12:00,82.0,77.0,29.97,ESE,117,1.0,-999.0,86,-99.99,,,-99.99,,2013-06-18 09:12:00,
2013-06-18 05:22:00,82.0,77.0,29.97,ESE,109,3.0,-999.0,86,-99.99,,,-99.99,,2013-06-18 09:22:00,
2013-06-18 05:34:00,82.0,78.0,29.97,ENE,71,3.0,-999.0,87,-99.99,,,-99.99,,2013-06-18 09:34:00,
2013-06-18 05:43:00,82.0,78.0,29.97,ESE,103,1.0,-999.0,87,-99.99,,,-99.99,,2013-06-18 09:43:00,
2013-06-18 05:53:00,82.0,78.0,29.97,East,88,5.0,-999.0,87,-99.99,,,-99.99,,2013-06-18 09:53:00,
2013-06-18 06:02:00,82.0,78.0,29.97,East,97,4.0,-999.0,87,-99.99,,,-99.99,,2013-06-18 10:02:00,
2013-06-18 06:11:00,82.0,78.0,29.97,ESE,103,5.0,-999.0,87,-99.99,,,-99.99,,2013-06-18 10:11:00,
2013-06-18 06:22:00,82.0,78.0,29.97,ESE,106,6.0,-999.0,87,-99.99,,,-99.99,,2013-06-18 10:22:00,
2013-06-18 06:33:00,82.0,78.0,29.97,SE,130,5.0,-999.0,87,-99.99,,,-99.99,,2013-06-18 10:33:00,
2013-06-18 06:43:00,82.0,78.0,29.97,ESE,105,6.0,-999.0,87,-99.99,,,-99.99,,2013-06-18 10:43:00,
2013-06-18 06:53:00,82.0,78.0,29.97,ESE,115,6.0,-999.0,87,-99.99,,,-99.99,,2013-06-18 10:53:00,
2013-06-18 07:02:00,83.0,78.0,29.97,SE,135,3.0,-999.0,86,-99.99,,,-99.99,,2013-06-18 11:02:00,
2013-06-18 07:11:00,83.0,79.0,29.98,SE,134,7.0,-999.0,87,-99.99,,,-99.99,,2013-06-18 11:11:00,
2013-06-18 07:22:00,83.0,79.0,29.98,SE,130,4.0,-999.0,87,-99.99,,,-99.99,,2013-06-18 11:22:00,
2013-06-18 07:32:00,83.0,78.0,29.98,ESE,111,8.0,-999.0,86,-99.99,,,-99.99,,2013-06-18 11:32:00,
2013-06-18 07:43:00,83.0,78.0,29.98,ESE,117,6.0,-999.0,85,-99.99,,,-99.99,,2013-06-18 11:43:00,
2013-06-18 07:52:00,83.0,78.0,29.98,SE,132,7.0,-999.0,84,-99.99,,,-99.99,,2013-06-18 11:52:00,
2013-06-18 08:01:00,83.0,78.0,29.98,East,101,8.0,-999.0,84,-99.99,,,-99.99,,2013-06-18 12:01:00,
2013-06-18 08:11:00,84.0,79.0,29.98,SE,127,7.0,-999.0,84,-99.99,,,-99.99,,2013-06-18 12:11:00,
2013-06-18 08:22:00,84.0,79.0,29.98,ESE,104,6.0,-999.0,84,-99.99,,,-99.99,,2013-06-18 12:22:00,
2013-06-18 08:33:00,84.0,79.0,29.98,ESE,108,9.0,-999.0,84,-99.99,,,-99.99,,2013-06-18 12:33:00,
2013-06-18 08:43:00,84.0,79.0,29.99,ESE,113,9.0,-999.0,84,-99.99,,,-99.99,,2013-06-18 12:43:00,
2013-06-18 08:52:00,84.0,79.0,29.99,SE,140,9.0,-999.0,84,-99.99,,,-99.99,,2013-06-18 12:52:00,
2013-06-18 09:02:00,84.0,79.0,29.99,East,97,9.0,-999.0,84,-99.99,,,-99.99,,2013-06-18 13:02:00,
2013-06-18 09:12:00,84.0,79.0,30.00,SE,142,8.0,-999.0,84,-99.99,,,-99.99,,2013-06-18 13:12:00,
2013-06-18 09:22:00,84.0,79.0,30.00,ESE,114,8.0,-999.0,84,-99.99,,,-99.99,,2013-06-18 13:22:00,
2013-06-18 09:33:00,84.0,78.0,30.00,SE,128,9.0,-999.0,83,-99.99,,,-99.99,,2013-06-18 13:33:00,
2013-06-18 09:43:00,84.0,78.0,30.00,SE,130,10.0,-999.0,82,-99.99,,,-99.99,,2013-06-18 13:43:00,
2013-06-18 09:52:00,84.0,78.0,30.00,SE,130,9.0,-999.0,81,-99.99,,,-99.99,,2013-06-18 13:52:00,
2013-06-18 10:02:00,84.0,78.0,30.01,SE,125,8.0,-999.0,82,-99.99,,,-99.99,,2013-06-18 14:02:00,
2013-06-18 10:11:00,84.0,78.0,30.01,ESE,119,6.0,-999.0,82,-99.99,,,-99.99,,2013-06-18 14:11:00,
2013-06-18 10:22:00,84.0,78.0,30.01,SSE,150,7.0,-999.0,81,-99.99,,,-99.99,,2013-06-18 14:22:00,
2013-06-18 10:33:00,85.0,78.0,30.01,East,93,7.0,-999.0,81,-99.99,,,-99.99,,2013-06-18 14:33:00,
2013-06-18 10:43:00,85.0,79.0,30.02,SE,136,7.0,-999.0,82,-99.99,,,-99.99,,2013-06-18 14:43:00,
2013-06-18 10:53:00,85.0,79.0,30.02,ESE,123,6.0,-999.0,83,-99.99,,,-99.99,,2013-06-18 14:53:00,
2013-06-18 11:02:00,85.0,79.0,30.02,East,96,4.0,-999.0,82,-99.99,,,-99.99,,2013-06-18 15:02:00,
2013-06-18 11:11:00,85.0,78.0,30.02,SE,129,6.0,-999.0,81,-99.99,,,-99.99,,2013-06-18 15:11:00,
2013-06-18 11:22:00,85.0,79.0,30.02,SSE,155,6.0,-999.0,82,-99.99,,,-99.99,,2013-06-18 15:22:00,
2013-06-18 11:33:00,85.0,79.0,30.01,SSW,196,4.0,-999.0,82,-99.99,,,-99.99,,2013-06-18 15:33:00,
2013-06-18 11:43:00,86.0,79.0,30.01,SE,145,2.0,-999.0,81,-99.99,,,-99.99,,2013-06-18 15:43:00,
2013-06-18 11:53:00,85.0,79.0,30.02,SE,138,6.0,-999.0,82,-99.99,,,-99.99,,2013-06-18 15:53:00,
2013-06-18 12:01:00,85.0,78.0,30.02,ESE,103,8.0,-999.0,81,-99.99,,,-99.99,,2013-06-18 16:01:00,
2013-06-18 12:11:00,85.0,78.0,30.02,ESE,103,8.0,-999.0,81,-99.99,,,-99.99,,2013-06-18 16:11:00,
2013-06-18 12:23:00,86.0,80.0,30.02,SE,130,6.0,-999.0,82,-99.99,,,-99.99,,2013-06-18 16:23:00,
2013-06-18 12:33:00,86.0,79.0,30.01,SE,128,7.0,-999.0,80,-99.99,,,-99.99,,2013-06-18 16:33:00,
2013-06-18 12:43:00,86.0,79.0,30.01,SSE,148,6.0,-999.0,80,-99.99,,,-99.99,,2013-06-18 16:43:00,
2013-06-18 12:53:00,86.0,79.0,30.01,ENE,78,5.0,-999.0,80,-99.99,,,-99.99,,2013-06-18 16:53:00,
2013-06-18 13:02:00,86.0,79.0,30.01,ESE,123,6.0,-999.0,81,-99.99,,,-99.99,,2013-06-18 17:02:00,
2013-06-18 13:12:00,86.0,80.0,30.01,East,95,7.0,-999.0,82,-99.99,,,-99.99,,2013-06-18 17:12:00,
2013-06-18 13:22:00,85.0,79.0,30.01,ESE,107,7.0,-999.0,82,-99.99,,,-99.99,,2013-06-18 17:22:00,
2013-06-18 13:33:00,86.0,80.0,30.01,ENE,76,8.0,-999.0,82,-99.99,,,-99.99,,2013-06-18 17:33:00,
2013-06-18 13:43:00,86.0,80.0,30.01,ESE,112,7.0,-999.0,82,-99.99,,,-99.99,,2013-06-18 17:43:00,
2013-06-18 13:53:00,86.0,79.0,30.00,ESE,121,7.0,-999.0,81,-99.99,,,-99.99,,2013-06-18 17:53:00,
2013-06-18 14:02:00,86.0,80.0,30.00,SSE,155,8.0,-999.0,82,-99.99,,,-99.99,,2013-06-18 18:02:00,
2013-06-18 14:12:00,86.0,79.0,30.00,ESE,111,8.0,-999.0,81,-99.99,,,-99.99,,2013-06-18 18:12:00,
2013-06-18 14:22:00,86.0,79.0,30.00,ENE,76,6.0,-999.0,80,-99.99,,,-99.99,,2013-06-18 18:22:00,
2013-06-18 14:33:00,86.0,79.0,30.00,East,101,4.0,-999.0,81,-99.99,,,-99.99,,2013-06-18 18:33:00,
2013-06-18 14:42:00,86.0,79.0,30.00,ESE,102,8.0,-999.0,81,-99.99,,,-99.99,,2013-06-18 18:42:00,
2013-06-18 14:53:00,86.0,79.0,30.00,SE,134,8.0,-999.0,81,-99.99,,,-99.99,,2013-06-18 18:53:00,
2013-06-18 15:02:00,86.0,79.0,29.99,SE,139,7.0,-999.0,81,-99.99,,,-99.99,,2013-06-18 19:02:00,
2013-06-18 15:12:00,86.0,79.0,29.99,South,191,9.0,-999.0,80,-99.99,,,-99.99,,2013-06-18 19:12:00,
2013-06-18 15:22:00,86.0,79.0,29.98,SE,146,8.0,-999.0,81,-99.99,,,-99.99,,2013-06-18 19:22:00,
2013-06-18 15:33:00,86.0,79.0,29.98,SE,136,8.0,-999.0,81,-99.99,,,-99.99,,2013-06-18 19:33:00,
2013-06-18 15:43:00,86.0,80.0,29.98,SE,130,4.0,-999.0,82,-99.99,,,-99.99,,2013-06-18 19:43:00,
2013-06-18 15:52:00,86.0,79.0,29.98,SE,145,7.0,-999.0,81,-99.99,,,-99.99,,2013-06-18 19:52:00,
2013-06-18 16:02:00,87.0,80.0,29.98,SE,140,6.0,-999.0,80,-99.99,,,-99.99,,2013-06-18 20:02:00,
2013-06-18 16:11:00,86.0,79.0,29.97,SE,127,7.0,-999.0,80,-99.99,,,-99.99,,2013-06-18 20:11:00,
2013-06-18 16:23:00,86.0,79.0,29.97,ESE,122,8.0,-999.0,80,-99.99,,,-99.99,,2013-06-18 20:23:00,
2013-06-18 16:33:00,87.0,80.0,29.97,SSE,158,6.0,-999.0,79,-99.99,,,-99.99,,2013-06-18 20:33:00,
2013-06-18 16:43:00,86.0,79.0,29.97,ESE,123,4.0,-999.0,81,-99.99,,,-99.99,,2013-06-18 20:43:00,
2013-06-18 16:52:00,86.0,79.0,29.97,South,174,7.0,-999.0,80,-99.99,,,-99.99,,2013-06-18 20:52:00,
2013-06-18 17:02:00,86.0,79.0,29.96,SSE,164,5.0,-999.0,81,-99.99,,,-99.99,,2013-06-18 21:02:00,
2013-06-18 17:11:00,86.0,79.0,29.96,SE,136,4.0,-999.0,81,-99.99,,,-99.99,,2013-06-18 21:11:00,
2013-06-18 17:23:00,86.0,79.0,29.96,ESE,115,5.0,-999.0,81,-99.99,,,-99.99,,2013-06-18 21:23:00,
2013-06-18 17:33:00,86.0,79.0,29.96,SE,138,5.0,-999.0,81,-99.99,,,-99.99,,2013-06-18 21:33:00,
2013-06-18 17:43:00,86.0,80.0,29.96,ESE,119,5.0,-999.0,82,-99.99,,,-99.99,,2013-06-18 21:43:00,
2013-06-18 17:52:00,86.0,79.0,29.95,SE,139,5.0,-999.0,81,-99.99,,,-99.99,,2013-06-18 21:52:00,
2013-06-18 18:02:00,86.0,79.0,29.95,SE,138,5.0,-999.0,81,-99.99,,,-99.99,,2013-06-18 22:02:00,
2013-06-18 18:11:00,85.0,79.0,29.96,ESE,122,7.0,-999.0,82,-99.99,,,-99.99,,2013-06-18 22:11:00,
2013-06-18 18:22:00,86.0,79.0,29.95,SE,140,5.0,-999.0,81,-99.99,,,-99.99,,2013-06-18 22:22:00,
2013-06-18 18:34:00,85.0,79.0,29.96,ESE,113,7.0,-999.0,82,-99.99,,,-99.99,,2013-06-18 22:34:00,
2013-06-18 18:43:00,85.0,79.0,29.96,ESE,113,7.0,-999.0,82,-99.99,,,-99.99,,2013-06-18 22:43:00,
2013-06-18 18:53:00,85.0,78.0,29.95,ESE,123,7.0,-999.0,81,-99.99,,,-99.99,,2013-06-18 22:53:00,
2013-06-18 19:02:00,85.0,78.0,29.95,ESE,110,6.0,-999.0,81,-99.99,,,-99.99,,2013-06-18 23:02:00,
2013-06-18 19:11:00,85.0,78.0,29.95,SE,125,5.0,-999.0,81,-99.99,,,-99.99,,2013-06-18 23:11:00,
2013-06-18 19:23:00,85.0,79.0,29.96,SE,139,6.0,-999.0,82,-99.99,,,-99.99,,2013-06-18 23:23:00,
2013-06-18 19:37:00,85.0,79.0,29.96,ESE,106,6.0,-999.0,82,-99.99,,,-99.99,,2013-06-18 23:37:00,
2013-06-18 19:46:00,85.0,79.0,29.96,SE,132,7.0,-999.0,82,-99.99,,,-99.99,,2013-06-18 23:46:00,
2013-06-18 19:53:00,85.0,79.0,29.96,SE,142,5.0,-999.0,83,-99.99,,,-99.99,,2013-06-18 23:53:00,
2013-06-18 20:02:00,85.0,79.0,29.96,SE,142,6.0,-999.0,83,-99.99,,,-99.99,,2013-06-19 00:02:00,
2013-06-18 20:11:00,84.0,78.0,29.96,SSE,156,7.0,-999.0,83,-99.99,,,-99.99,,2013-06-19 00:11:00,
2013-06-18 20:22:00,84.0,78.0,29.96,SE,133,7.0,-999.0,83,-99.99,,,-99.99,,2013-06-19 00:22:00,
2013-06-18 20:33:00,84.0,79.0,29.97,ESE,123,4.0,-999.0,84,-99.99,,,-99.99,,2013-06-19 00:33:00,
2013-06-18 20:43:00,84.0,79.0,29.97,SE,144,6.0,-999.0,84,-99.99,,,-99.99,,2013-06-19 00:43:00,
2013-06-18 20:53:00,84.0,78.0,29.97,SE,144,7.0,-999.0,83,-99.99,,,-99.99,,2013-06-19 00:53:00,
2013-06-18 21:01:00,84.0,79.0,29.98,SSE,152,6.0,-999.0,84,-99.99,,,-99.99,,2013-06-19 01:01:00,
2013-06-18 21:11:00,84.0,79.0,29.98,SE,130,5.0,-999.0,84,-99.99,,,-99.99,,2013-06-19 01:11:00,
2013-06-18 21:22:00,84.0,79.0,29.98,SE,130,5.0,-999.0,84,-99.99,,,-99.99,,2013-06-19 01:22:00,
2013-06-18 21:32:00,84.0,79.0,29.98,SE,144,4.0,-999.0,84,-99.99,,,-99.99,,2013-06-19 01:32:00,
2013-06-18 21:43:00,84.0,79.0,29.98,SE,144,4.0,-999.0,84,-99.99,,,-99.99,,2013-06-19 01:43:00,
2013-06-18 21:53:00,84.0,79.0,29.98,SE,144,4.0,-999.0,84,-99.99,,,-99.99,,2013-06-19 01:53:00,
2013-06-18 22:01:00,84.0,79.0,29.98,SE,144,4.0,-999.0,84,-99.99,,,-99.99,,2013-06-19 02:01:00,
2013-06-18 22:11:00,84.0,79.0,29.98,SE,137,7.0,-999.0,84,-99.99,,,-99.99,,2013-06-19 02:11:00,
2013-06-18 22:21:00,84.0,79.0,29.98,SE,137,7.0,-999.0,84,-99.99,,,-99.99,,2013-06-19 02:21:00,
2013-06-18 22:32:00,84.0,79.0,29.98,SE,137,7.0,-999.0,84,-99.99,,,-99.99,,2013-06-19 02:32:00,
2013-06-18 22:42:00,84.0,79.0,29.99,SE,130,7.0,-999.0,85,-99.99,,,-99.99,,2013-06-19 02:42:00,
2013-06-18 22:52:00,84.0,79.0,29.99,SE,130,7.0,-999.0,85,-99.99,,,-99.99,,2013-06-19 02:52:00,
2013-06-18 23:01:00,84.0,79.0,29.99,SE,130,7.0,-999.0,85,-99.99,,,-99.99,,2013-06-19 03:01:00,
2013-06-18 23:11:00,84.0,79.0,29.99,South,178,7.0,-999.0,85,-99.99,,,-99.99,,2013-06-19 03:11:00,
2013-06-18 23:22:00,84.0,79.0,29.99,SSE,153,6.0,-999.0,84,-99.99,,,-99.99,,2013-06-19 03:22:00,
2013-06-18 23:33:00,84.0,79.0,29.99,SSE,153,6.0,-999.0,84,-99.99,,,-99.99,,2013-06-19 03:33:00,
2013-06-18 23:42:00,84.0,79.0,29.99,SE,127,7.0,-999.0,84,-99.99,,,-99.99,,2013-06-19 03:42:00,
2013-06-18 23:52:00,84.0,79.0,29.99,SSE,148,7.0,-999.0,84,-99.99,,,-99.99,,2013-06-19 03:52:00,